Weather History for Frankfort, KY

Change the Weather History Date:

Wednesday, July 10, 2013

  Actual Average Record
Temperature  
Mean Temperature 79 °F 76 °F  
Max Temperature 89 °F 87 °F 109 °F (1936)
Min Temperature 69 °F 66 °F 51 °F (1963)
Degree Days  
Heating Degree Days 0 0  
Month to date heating degree days 0 0  
Since 1 June heating degree days 2 10  
Since 1 July heating degree days 0 0  
Cooling Degree Days 14 11  
Month to date cooling degree days 85 110  
Year to date cooling degree days 445 445  
Since 1 June cooling degree days 326 346  
Growing Degree Days 28 (Base 50)    
Moisture  
Dew Point 71 °F    
Average Humidity 84    
Maximum Humidity 100    
Minimum Humidity 68    
Precipitation  
Precipitation 0.52 in 0.15 in 3.06 in (1986)
Month to date precipitation 5.61 1.29  
Year to date precipitation 30.79 24.85  
Sea Level Pressure  
Sea Level Pressure 29.95 in    
Wind  
Wind Speed 6 mph (SW)    
Max Wind Speed 21 mph    
Max Gust Speed 30 mph    
Visibility 9 miles    
Events Rain , Thunderstorm    
T = Trace of Precipitation, MM = Missing Value Source: NWS Daily Summary

Daily Weather History Graph

Daily Weather History Graph

Search for Another Location

Airport:

Trip Planner

Search our weather history database for the weather conditions in past years. The results will help you decide how hot, cold, wet, or windy it might be!

Date:

Astronomy

Jul. 10, 2013 Rise Set
Actual Time 6:25 AM EDT 9:04 PM EDT
Civil Twilight 5:54 AM EDT 9:35 PM EDT
Nautical Twilight 5:15 AM EDT 10:13 PM EDT
Astronomical Twilight 4:32 AM EDT 10:57 PM EDT
Moon 8:42 AM EDT (7/10) 10:17 PM EDT (7/10)
Length of Visible Light 15h 41m
Length of Day
14h 39m
Waxing Crescent, 5% of the Moon is Illuminated
Jul 10
Waxing Crescent
Jul 15
First Quarter
Jul 22
Full
Jul 29
Last Quarter
Aug 6
New

Hourly Weather History & Observations

Time (EDT) Temp. Heat Index Dew Point Humidity Pressure Visibility Wind Dir Wind Speed Gust Speed Precip Events Conditions
12:53 AM 77.0 °F - 73.0 °F 88% 30.01 in 10.0 mi SSW 3.5 mph - N/A   Clear
1:53 AM 78.1 °F - 73.0 °F 84% 30.01 in 10.0 mi SSW 5.8 mph - N/A   Clear
2:53 AM 77.0 °F - 73.0 °F 88% 29.99 in 10.0 mi South 6.9 mph - N/A   Overcast
3:53 AM 75.9 °F - 73.0 °F 91% 29.99 in 10.0 mi South 6.9 mph - 0.00 in Rain Light Rain
4:53 AM 75.9 °F - 73.0 °F 91% 29.99 in 10.0 mi SSW 8.1 mph - 0.00 in   Clear
5:53 AM 75.0 °F - 73.0 °F 94% 29.99 in 10.0 mi SW 5.8 mph - N/A   Partly Cloudy
6:53 AM 75.0 °F - 73.0 °F 94% 29.98 in 10.0 mi SSW 5.8 mph - N/A   Partly Cloudy
7:53 AM 75.9 °F - 73.0 °F 91% 29.98 in 10.0 mi SSW 6.9 mph - N/A   Scattered Clouds
8:53 AM 80.1 °F 84.5 °F 73.9 °F 81% 29.97 in 10.0 mi SW 11.5 mph - N/A   Clear
9:53 AM 82.9 °F 89.4 °F 73.9 °F 74% 29.98 in 10.0 mi WSW 6.9 mph - N/A   Clear
10:53 AM 84.0 °F 91.9 °F 75.0 °F 74% 29.96 in 10.0 mi SW 11.5 mph - N/A   Clear
11:53 AM 86.0 °F 95.1 °F 75.0 °F 70% 29.94 in 10.0 mi SW 10.4 mph - N/A   Clear
12:53 PM 88.0 °F 98.5 °F 75.9 °F 67% 29.96 in 10.0 mi SW 13.8 mph 19.6 mph N/A   Mostly Cloudy
1:53 PM 88.0 °F 97.5 °F 75.0 °F 65% 29.94 in 10.0 mi WSW 13.8 mph - N/A   Scattered Clouds
2:37 PM 87.8 °F 97.6 °F 75.2 °F 66% 29.90 in 10.0 mi SW 11.5 mph - N/A Thunderstorm Partly Cloudy
2:53 PM 86.0 °F 95.1 °F 75.0 °F 70% 29.88 in 10.0 mi SW 8.1 mph - N/A Thunderstorm Scattered Clouds
3:13 PM 71.6 °F - 68.0 °F 88% 29.95 in 1.2 mi West 18.4 mph 26.5 mph 0.13 in Rain , Thunderstorm Thunderstorms and Rain
3:15 PM 71.6 °F - 66.2 °F 83% 29.95 in 0.8 mi WNW 17.3 mph 27.6 mph 0.18 in Rain , Thunderstorm Heavy Thunderstorms and Rain
3:28 PM 71.6 °F - 66.2 °F 83% 29.92 in 1.2 mi Calm Calm - 0.37 in Rain , Thunderstorm Heavy Thunderstorms and Rain
3:37 PM 71.6 °F - 68.0 °F 88% 29.92 in 2.5 mi Calm Calm - 0.41 in Rain , Thunderstorm Heavy Thunderstorms and Rain
3:46 PM 71.6 °F - 68.0 °F 88% 29.94 in 4.0 mi NW 11.5 mph - 0.42 in Rain , Thunderstorm Light Rain
3:53 PM 72.0 °F - 69.1 °F 91% 29.92 in 4.0 mi WNW 10.4 mph 24.2 mph 0.44 in Rain , Thunderstorm Rain
4:04 PM 71.6 °F - 69.8 °F 94% 29.94 in 2.5 mi WNW 6.9 mph 25.3 mph 0.06 in Rain , Thunderstorm Rain
4:13 PM 71.6 °F - 69.8 °F 94% 29.94 in 9.0 mi Calm Calm - 0.06 in Rain , Thunderstorm Light Thunderstorms and Rain
4:40 PM 71.6 °F - 69.8 °F 94% 29.93 in 10.0 mi SSW 6.9 mph - 0.06 in   Partly Cloudy
4:53 PM 72.0 °F - 70.0 °F 93% 29.90 in 10.0 mi South 5.8 mph - 0.06 in   Partly Cloudy
5:53 PM 72.0 °F - 70.0 °F 93% 29.87 in 10.0 mi South 8.1 mph - 0.02 in   Partly Cloudy
6:53 PM 72.0 °F - 70.0 °F 93% 29.88 in 10.0 mi SW 3.5 mph - N/A   Clear
7:42 PM 71.6 °F - 69.8 °F 94% 29.94 in 10.0 mi Calm Calm - N/A   Partly Cloudy
7:53 PM 72.0 °F - 70.0 °F 93% 29.92 in 10.0 mi Calm Calm - N/A   Scattered Clouds
8:53 PM 71.1 °F - 70.0 °F 96% 29.92 in 10.0 mi Calm Calm - N/A   Partly Cloudy
9:13 PM 71.6 °F - 69.8 °F 94% 29.94 in 10.0 mi Calm Calm - N/A   Mostly Cloudy
9:37 PM 71.6 °F - 69.8 °F 94% 29.94 in 10.0 mi Calm Calm - N/A   Scattered Clouds
9:49 PM 71.6 °F - 69.8 °F 94% 29.95 in 10.0 mi Calm Calm - N/A   Mostly Cloudy
9:53 PM 71.1 °F - 70.0 °F 96% 29.93 in 10.0 mi Calm Calm - N/A   Mostly Cloudy
10:19 PM 71.6 °F - 69.8 °F 94% 29.96 in 10.0 mi Calm Calm - N/A   Scattered Clouds
10:49 PM 69.8 °F - 69.8 °F 100% 29.97 in 10.0 mi Calm Calm - N/A   Mostly Cloudy
10:53 PM 70.0 °F - 69.1 °F 97% 29.96 in 10.0 mi Calm Calm - N/A   Mostly Cloudy
11:44 PM 69.8 °F - 69.8 °F 100% 29.97 in 10.0 mi Calm Calm - N/A   Mostly Cloudy
11:53 PM 70.0 °F - 69.1 °F 97% 29.94 in 10.0 mi Calm Calm - N/A   Overcast